Regional Weather Roundup
Issued by NWS

Home | Current Version | Previous Version | Text Only | Print | Product List | Glossary Off
Versions: 1 2 3 4 5 6 7 8 9 10 11 12 13 14 15 16 17 18 19 20 21 22 23 24 25 26 27 28 29 30 31 32 33 34 35 36 37 38 39 40 41 42 43 44 45 46 47 48 49 50

000
ASUS43 KMPX 022010
RWRMN
WEATHER ROUNDUP FOR MINNESOTA
NATIONAL WEATHER SERVICE TWIN CITIES/CHANHASSEN MN
300 PM CDT TUE SEP 02 2014


NOTE: "FAIR" INDICATES FEW OR NO CLOUDS BELOW 12,000 FEET WITH NO
SIGNIFICANT WEATHER AND/OR OBSTRUCTIONS TO VISIBILITY. N/A MEANS
CURRENT SKY AND/OR WEATHER CONDITIONS ARE NOT AVAILABLE.

MNZ060>063-068>070-022100-
   Twin Cities Metro

CITY           SKY/WX    TMP DP  RH WIND       PRES   REMARKS
TWIN CITIES    MOSUNNY   77  48  35 W13G20    29.89S
ST PAUL        SUNNY     77  50  38 W8        29.89S
CRYSTAL        SUNNY     78  48  34 W14       29.87F
LAKEVILLE      SUNNY     73  55  53 W9        29.90F
EDEN PRAIRIE   SUNNY     78  50  37 SW13      29.89S
SOUTH ST PAUL  SUNNY     77  46  32 W9        29.89F
LAKE ELMO      FAIR      77  50  38 W9        29.90S
$$
MNZ001>005-007-008-013>017-022>024-027-028-022100-
   Northwest Minnesota

CITY           SKY/WX    TMP DP  RH WIND       PRES   REMARKS
BEMIDJI        PTSUNNY   73  51  46 W20       29.79F
HALLOCK        SUNNY     73  54  49 S12       29.68F
ROSEAU         SUNNY     73  52  46 SW7       29.72F
WARROAD        MOSUNNY   72  54  53 SW6       29.74F
THIEF RVR FALL SUNNY     72  52  49 S16       29.75F
CROOKSTON      MOSUNNY   73  55  53 SW16G22   29.75F
FOSSTON        PTSUNNY   72  55  56 S18G29    29.78F
DETROIT LAKES  PTSUNNY   73  50  43 SW12G20   29.83S
MOORHEAD       MOSUNNY   79  52  38 SW10      29.79F
PARK RAPIDS    PTSUNNY   75  50  41 SW15      29.83F
MAHNOMEN       MOCLDY    69  56  64 S9        29.79F
$$
MNZ006-009>011-018-025>026-022100-
   North Central Minnesota

CITY           SKY/WX    TMP DP  RH WIND       PRES   REMARKS
BAUDETTE       CLOUDY    71  46  40 VRB6      29.75F
FLAG ISLAND    MOSUNNY   70  50  49 SW12      29.72F
INTL FALLS     MOSUNNY   72  50  45 W9        29.76S
WASKISH        CLOUDY    70  55  60 SW8       29.78F
BIG FORK       TSTM      57  50  77 W14G31    29.85R
LONGVILLE      MOSUNNY   75  52  43 SW12G18   29.82S
GRAND RAPIDS   PTSUNNY   72  50  46 SW10      29.81F
CRANE LAKE     MOSUNNY   72  45  37 NW7       29.78S
ORR            MOSUNNY   73  43  33 CALM      29.75F
COOK           MOSUNNY   75  46  35 W13G22    29.78F
WALKER         MOCLDY    71  51  50 SW12G17   29.81S
$$
MNZ012-019>021-037-022100-
   Northeast Minnesota

CITY           SKY/WX    TMP DP  RH WIND       PRES   REMARKS
DULUTH         MOSUNNY   76  49  38 W16G23    29.82S
ELY            SUNNY     72  46  40 W16       29.78S
HIBBING        PTSUNNY   72  49  44 W8        29.80S
EVELETH        MOSUNNY   72  50  46 W8        29.80F
DULUTH HARBOR  MOSUNNY   77  54  44 SW15      29.81S
TWO HARBORS    MOSUNNY   72  52  49 W10G17    29.78F
SILVER BAY     MOSUNNY   70  59  68 S13       29.78F
GRAND MARAIS     N/A     66  59  78 W7        29.77S
G MARAIS ARPRT PTSUNNY   64  50  59 SW7       29.81R
$$
MNZ029>031-032-039>041-046>048-054>057-064-022100-
   West Central Minnesota

CITY           SKY/WX    TMP DP  RH WIND       PRES   REMARKS
FERGUS FALLS   SUNNY     77  48  36 SW14G20   29.82F
WHEATON        SUNNY     73  54  49 SW12      29.85F
MORRIS         SUNNY     79  54  41 SW12G18   29.85F
ALEXANDRIA     SUNNY     76  53  44 SW14      29.88S
ELBOW LAKE     FAIR      75  56  52 SW13      29.84F
WADENA         MOSUNNY   75  54  46 SW12G17   29.84S
GLENWOOD       SUNNY     75  54  46 SW10G22   29.88F
APPLETON       SUNNY     81  52  36 SW12      29.87S
BENSON         MOSUNNY   77  55  47 W13       29.87F
ORTONVILLE     SUNNY     77  52  41 SW10G18   29.86F
MADISON        MOSUNNY   79  57  47 SW14      29.88S
WILLMAR        FAIR      75  54  46 SW13      29.90F
$$
MNZ033>034-036-042>043-049>051-058-059-022100-
   Central Minnesota

CITY           SKY/WX    TMP DP  RH WIND       PRES   REMARKS
ST CLOUD       SUNNY     79  51  37 W18G24    29.87F
SAUK CENTRE    FAIR      73  55  53 SW16      29.88S
PAYNESVILLE    HVY RAIN  73  51  46 S10G18    29.89F
AITKIN         SUNNY     77  52  41 SW9       29.83F
PINE RIVER     MOSUNNY   73  54  49 SW7       29.86F
BRAINERD       MOSUNNY   75  49  39 W16G24    29.85S
STAPLES        SUNNY     75  48  38 SW12      29.85S
LONG PRAIRIE   FAIR      73  52  46 S13       29.88S
LITTLE FALLS   MOSUNNY   75  46  35 SW10      29.86F
LITCHFIELD     SUNNY     77  52  41 SW7       29.90F
BUFFALO        SUNNY     76  50  40 SW9       29.90S
MAPLE LAKE     SUNNY     76  55  47 SW5       29.90S
$$
MNZ037-044-045-052-053-022100-
   East Central Minnesota

CITY           SKY/WX    TMP DP  RH WIND       PRES   REMARKS
PRINCETON      SUNNY     79  50  36 SW7       29.88S
MORA           SUNNY     73  48  40 W10       29.87F
CAMBRIDGE      MOSUNNY   79  57  47 SW9       29.86F
RUSH CITY      SUNNY     75  51  43 SW9       29.87F
MOOSE LAKE     MOSUNNY   73  46  38 SW10G17   29.83S
HINCKLEY       MOCLDY    75  52  43 SW12G18   29.86S
CLOQUET        MOSUNNY   73  45  35 SW9G20    29.83F
MCGREGOR       PTSUNNY   72  50  46 SW8G16    29.84F
$$
MNZ071>073-080-081-089-090-097-098-022100-
   Southwest Minnesota

CITY           SKY/WX    TMP DP  RH WIND       PRES   REMARKS
MONTEVIDEO     SUNNY     79  54  41 W9        29.89F
GRANITE FALLS  SUNNY     77  57  49 SW9       29.90F
CANBY          SUNNY     77  52  41 SW13G18   29.90F
MARSHALL       MOSUNNY   79  52  38 W15G23    29.89F
REDWOOD FALLS  MOSUNNY   78  53  41 SW12      29.89F
OLIVIA         MOSUNNY   77  52  41 SW7       29.89F
PIPESTONE      SUNNY     73  57  56 SW9       29.94F
WINDOM         MOSUNNY   75  57  53 SW8       29.94S
WORTHINGTON    MOSUNNY   73  55  53 SW10G17   29.96S
JACKSON        MOSUNNY   73  54  49 W10G16    29.95S
TRACY          SUNNY     76  54  47 SW12G17   29.92S
SLAYTON        SUNNY     74  52  46 CALM      29.95S
$$
MNZ065>067-074>077-082>085-091>093-022100-
   South Central Minnesota

CITY           SKY/WX    TMP DP  RH WIND       PRES   REMARKS
MANKATO        MOSUNNY   75  55  50 SW9       29.91F
NEW ULM        SUNNY     75  54  46 SW5       29.91F
ST JAMES       MOSUNNY   79  54  41 SW12      29.93S
FAIRMONT       MOSUNNY   73  54  49 W12       29.94S
GLENCOE        SUNNY     76  49  38 SW8       29.90F
FARIBAULT      MOSUNNY   81  52  36 SW8       29.92S
OWATONNA       MOSUNNY   75  57  53 W8        29.93S
WASECA         MOSUNNY   75  55  50 W8        29.94F
ALBERT LEA     SUNNY     75  57  53 SW8       29.94S
$$
MNZ078>079-086>088-094>096-022100-
   Southeast Minnesota

CITY           SKY/WX    TMP DP  RH WIND       PRES   REMARKS
ROCHESTER      MOSUNNY   74  58  57 W9        29.94R
RED WING       SUNNY     81  50  34 W9        29.88S
STANTON        MOSUNNY   77  53  43 W7        29.90S
DODGE CENTER   SUNNY     75  59  57 W12       29.93S
WINONA         MOSUNNY   77  55  47 W9        29.90S
AUSTIN         SUNNY     75  55  50 W10G17    29.94R
PRESTON        MOSUNNY   74  62  65 CALM      29.94S
$$
ABBREVIATIONS USED IN REMARKS
   TC - TEMPERATURES IN CELSIUS
  WCI - WIND CHILL INDEX
   HX - HEAT INDEX
  VSB - VISIBILITY
$$



USA.gov is the U.S. government's official web portal to all federal, state and local government web resources and services.